This is the latest recevied weather packets stored in our database for station/object OE6ACM-10. If no packets are shown the sender has not sent any weather packets the latest 10 day(s).
| Time | Temp. | Humidity | Pressure | Rain* | Wind** | Luminosity | Snow |
|---|---|---|---|---|---|---|---|
| 1788443786 | 31.11° C | 100% | 930.9 hPa | - | - | - | - |
| 1788443486 | 30.56° C | 100% | 930.9 hPa | - | - | - | - |
| 1788443186 | 30.56° C | 100% | 930.9 hPa | - | - | - | - |
| 1788442886 | 31.67° C | 100% | 930.8 hPa | - | - | - | - |
| 1788442586 | 31.11° C | 100% | 930.7 hPa | - | - | - | - |
| 1788442286 | 31.67° C | 100% | 930.9 hPa | - | - | - | - |
| 1788441986 | 32.22° C | 100% | 930.9 hPa | - | - | - | - |
| 1788441686 | 33.89° C | 93% | 930.9 hPa | - | - | - | - |
| 1788441386 | 34.44° C | 97% | 930.9 hPa | - | - | - | - |
| 1788441086 | 36.11° C | 77% | 930.9 hPa | - | - | - | - |
| 1788440786 | 37.22° C | 92% | 931 hPa | - | - | - | - |
| 1788440486 | 36.11° C | 100% | 930.9 hPa | - | - | - | - |
| 1788440186 | 35° C | 100% | 930.9 hPa | - | - | - | - |
| 1788439886 | 35° C | 100% | 931 hPa | - | - | - | - |
| 1788439586 | 35° C | 94% | 931.1 hPa | - | - | - | - |
| 1788439286 | 34.44° C | 100% | 931.2 hPa | - | - | - | - |
| 1788438986 | 32.78° C | 100% | 931.3 hPa | - | - | - | - |
| 1788438686 | 31.67° C | 100% | 931.3 hPa | - | - | - | - |
| 1788438386 | 31.11° C | 100% | 931.3 hPa | - | - | - | - |
| 1788438086 | 31.67° C | 100% | 931.2 hPa | - | - | - | - |
| 1788437786 | 30.56° C | 100% | 931.2 hPa | - | - | - | - |
| 1788437486 | 30° C | 100% | 931.2 hPa | - | - | - | - |
| 1788437186 | 30° C | 100% | 931.3 hPa | - | - | - | - |
| 1788436886 | 29.44° C | 100% | 931.4 hPa | - | - | - | - |
| 1788436586 | 29.44° C | 100% | 931.4 hPa | - | - | - | - |
* Rain since midnight (hover to see other rain measurements)
** Current wind speed in m/s (hover to see current wind gust speed)